Regional Weather Roundup
Issued by NWS Charleston, SC

Current Version | Previous Version | Graphics & Text | Print | Product List | Glossary On
Versions: 1 2 3 4 5 6 7 8 9 10 11 12 13 14 15 16 17 18 19 20 21 22 23 24 25 26 27 28 29 30 31 32 33 34 35 36 37 38 39 40 41 42 43 44 45 46 47 48 49 50
000 ASUS42 KCHS 181610 RWRCHS REGIONAL WEATHER ROUNDUP NATIONAL WEATHER SERVICE CHARLESTON SC 1200 PM EDT THU SEP 18 2014 NOTE: "FAIR" INDICATES FEW OR NO CLOUDS BELOW 12,000 FEET WITH NO SIGNIFICANT WEATHER AND/OR OBSTRUCTIONS TO VISIBILITY. NOT ALL STATIONS ARE QUALITY CONTROLLED BY THE NATIONAL WEATHER SERVICE. USE DATA WITH CAUTION...ESPECIALLY DEWPOINT OBSERVATIONS. SCZ027-030-031-034>040-042>050-181700- ...SOUTH CAROLINA... CITY SKY/WX TMP DP RH WIND PRES REMARKS N CHARLESTON PTSUNNY 84 70 62 NW5 29.96F WATERFRONT PRK N/A 84 N/A N/A E3 N/A FORT JOHNSON NOT AVBL MOUNT PLEASANT FAIR 81 72 74 CALM 29.96S JOHNS ISLAND PTSUNNY 81 79 94 CALM 29.96F PINOPOLIS N/A 79 70 73 N6 29.88F MONCKS CORNER N/A 81 72 74 N3 29.97S SUMMERVILLE PTSUNNY 81 72 74 N6 29.97S BEAUFORT MCAS PTSUNNY 84 72 67 NW5 29.96S BEAUFORT ARPT FAIR 82 72 69 NE5 29.95F HILTON HEAD IS MOSUNNY 82 73 74 NE6 29.96F GEORGETOWN NOT AVBL WALTERBORO PTSUNNY 82 68 61 NW5 29.97F ORANGEBURG PTSUNNY 79 67 66 NE5 29.99S BARNWELL CLOUDY 77 70 78 NE3 30.00S AIKEN CLOUDY 77 70 78 NE3 30.03S MANNING CLOUDY 73 73 100 N5 29.99F KINGSTREE NOT AVBL COLUMBIA CLOUDY 72 67 84 NE3 29.99F SUMTER NOT AVBL FLORENCE PTSUNNY 77 68 73 VRB3 29.98F MYRTLE BEACH PTSUNNY 79 70 73 NE7 29.97S N MYRTLE BEACH CLOUDY 78 69 73 CALM 29.97S $$ GAZ063-065-086>088-099>101-113>116-118-119-134-136>141-150-181700- ...GEORGIA... CITY SKY/WX TMP DP RH WIND PRES REMARKS SAVANNAH ARPT PTSUNNY 83 71 67 CALM 29.96S HUNTER AAF NOT AVBL FORT STEWART NOT AVBL STATESBORO NOT AVBL SYLVANIA CLOUDY 79 73 82 N5 29.99S CLAXTON CLOUDY 81 75 83 NE3 29.97S THOMSON CLOUDY 76 73 88 NE3 30.04S AUGUSTA-BUSH CLOUDY 77 69 76 VRB7 29.99S AUGUSTA-DANIEL PTSUNNY 77 67 71 E5 30.00F SWAINSBORO CLOUDY 79 77 94 NE6 29.99S VIDALIA CLOUDY 75 72 88 NE6 29.98F ALMA MOSUNNY 83 70 64 N6 29.96S WAYCROSS MOSUNNY 89 68 50 NW8 29.95S HX 92 JESUP FAIR 86 75 70 CALM 29.95F HX 95 BRUNSWICK PTSUNNY 86 70 58 CALM 29.95S HX 90 SAINT SIMONS PTSUNNY 84 71 65 SW5 29.94S $$ SCZ027-028-034-036>038-045-046-048>050-GAZ119-141-181700- ...LAKE AND SUPPLEMENTAL COASTAL OBSERVATIONS... STATION/POSITION TIME TEMP WIND PRES WAVE SWELL AIR SEA DIR/SP/G HT/PER HT/PER/DIR (UTC) (F) (DEG/KT/KT) (MB) (FT/S) (FT/S/D) UPR LAKE MARION NOT AVBL WINYAH BAY 1500 79 50/ 3 1014.0S LAKE MURRAY 1500 69 70/ 2/ 4 1015.6S ACE BASIN NERRS 1500 81 70/ 1 1015.0S FORT PULASKI 1600 80 50/ 6/ 8 1014.4F SAPELO ISLAND 1500 84 CALM 1015.0R $$ ANZ835-935-AMZ111-154-330-350-352-354-374-450-454-472-181700- ...C-MAN AND BUOY OBSERVATIONS... STATION/POSITION TIME TEMP WIND PRES WAVE SWELL AIR SEA DIR/SP/G HT/PER HT/PER/DIR (UTC) (F) (DEG/KT/KT) (MB) (FT/S) (FT/S/D) FOLLY BEACH CMAN 1500 78 40/ 5/ 6 1015.0R BUOY 41004 1600 79 83 10/ 8/ 10 1014.2R 3/11 3/11 BUOY 41008 1600 82 85 110/ 4/ 6 1014.2S 3/14 3/ 80/14 5E ST. MARYS GA 1600 85 N/A 3/12 2/100/12 FRYING PAN BUOY NOT AVBL BUOY 41025 1600 74 10/ 17/ 21 1014.8R 6/11 3/ 90/11 CAPE LOOKOUT NC 1500 75 40/ 17/ 19 1015.1R BUOY 41002 1452 79 82 20/ 6/ 8 1014.2R 3/11 3/ 90/11 BUOY 41010 1600 82 85 50/ 8/ 10 1013.8R 5/11 5/ 80/11 BUOY 41012 NOT AVBL ST AUGUSTINE FL 1600 80 30/ 6/ 6 1014.8F CAPERS NEARSHORE NOT AVBL FRIPP NEARSHORE NOT AVBL $$

USA.gov is the U.S. government's official web portal to all federal, state and local government web resources and services.